Location: Borovka
(49.7741°N, 14.5280°E)
Time: 23:07:15
(UTC+00:00)

CAS-6 - Visible Passes

Search period start: 12 March 2026 00:00
Search period end: 22 March 2026 00:00
Orbit: 599 x 620 km, 97.8° (Epoch: 12 March)

Date Brightness Start Highest point End Pass type
(mag) Time Alt. Az. Time Alt. Az. Time Alt. Az.
12 Mar ? 20:40:25 17° N 20:40:25 17° N 20:41:27 10° N visible
13 Mar ? 19:17:29 11° NNE 19:17:29 11° NNE 19:17:57 10° NNE visible
13 Mar ? 20:54:26 17° NNW 20:54:26 17° NNW 20:55:26 10° NNW visible
14 Mar ? 19:31:30 14° NNE 19:31:30 14° NNE 19:32:28 10° NNE visible
14 Mar ? 21:08:25 16° NNW 21:08:25 16° NNW 21:09:22 10° NNW visible
15 Mar ? 19:45:30 16° NNE 19:45:30 16° NNE 19:46:48 10° NNE visible
15 Mar ? 21:22:25 15° NNW 21:22:25 15° NNW 21:23:14 10° NNW visible
16 Mar ? 19:59:29 19° NNE 19:59:29 19° NNE 20:01:01 10° N visible
16 Mar ? 21:36:25 13° NW 21:36:25 13° NW 21:37:01 10° NNW visible
17 Mar ? 20:13:28 21° NNE 20:13:28 21° NNE 20:15:08 10° N visible
17 Mar ? 21:50:24 11° NW 21:50:24 11° NW 21:50:42 10° NW visible
18 Mar ? 20:27:28 23° N 20:27:28 23° N 20:29:13 10° N visible
19 Mar ? 19:04:31 10° NE 19:04:31 10° NE 19:04:50 10° NE visible
19 Mar ? 20:41:27 24° N 20:41:27 24° N 20:43:14 10° N visible
20 Mar ? 19:18:30 13° NE 19:18:30 13° NE 19:19:48 10° NNE visible
20 Mar ? 20:55:27 24° NNW 20:55:27 24° NNW 20:57:11 10° NNW visible
21 Mar ? 19:32:29 17° NE 19:32:29 17° NE 19:34:16 10° NNE visible
21 Mar ? 21:09:25 23° NNW 21:09:25 23° NNW 21:11:06 10° NNW visible
